Lewistown, MT

10:29 AM MST on January 20, 2017 (GMT -0700)
Lewistown Municipal

Weather History for KLWT - June, 2012

Change the Weather History Date:

Monday, June 4, 2012

  Actual Average Record
Temperature  
Mean Temperature 63 °F 55 °F  
Max Temperature 78 °F 67 °F 95 °F (1988)
Min Temperature 47 °F 43 °F 27 °F (1930)
Degree Days  
Heating Degree Days 2 10  
Month to date heating degree days 24 42  
Since 1 June heating degree days 24 42  
Since 1 July heating degree days 7287 8016  
Cooling Degree Days 0 0  
Month to date cooling degree days 0 0  
Year to date cooling degree days 0 2  
Since 1 June cooling degree days 0 0  
Growing Degree Days 12 (Base 50)    
Moisture  
Dew Point 51 °F    
Average Humidity 65    
Maximum Humidity 89    
Minimum Humidity 41    
Precipitation  
Precipitation 0.00 in 0.12 in 1.11 in (1934)
Month to date precipitation 0.55 0.48  
Year to date precipitation 8.54 6.74  
Snow  
Snow 0.00 in - - ()
Snow Depth 0.00 in    
Sea Level Pressure  
Sea Level Pressure 29.81 in    
Wind  
Wind Speed 10 mph (ESE)    
Max Wind Speed 31 mph    
Max Gust Speed 44 mph    
Visibility 10 miles    
Events      
T = Trace of Precipitation, MM = Missing Value Source: NWS Daily Summary

Daily Weather History Graph

Daily Weather History Graph

Search for Another Location

Airport or City:

Trip Planner

Search our weather history database for the weather conditions in past years. The results will help you decide how hot, cold, wet, or windy it might be!

Date:

Astronomy

Jun. 04, 2012 Rise Set
Actual Time 5:24 AM MDT 9:08 PM MDT
Civil Twilight 4:45 AM MDT 9:47 PM MDT
Nautical Twilight 3:52 AM MDT 10:40 PM MDT
Astronomical Twilight 2:38 AM MDT 11:55 PM MDT
Moon 9:40 PM MDT (6/4) 5:35 AM MDT (6/4)
Length of Visible Light 17h 02m
Length of Day
15h 43m
Full, 100% of the Moon is Illuminated
Jun 4
Full
Jun 11
Last Quarter
Jun 19
New
Jun 26
First Quarter
Jul 3
Full

Hourly Weather History & Observations

Time (MDT) Temp. Dew Point Humidity Pressure Visibility Wind Dir Wind Speed Gust Speed Precip Events Conditions
12:54 AM 53.1 °F 45.0 °F 74% 29.91 in 10.0 mi ESE 5.8 mph - N/A   Clear
1:54 AM 51.1 °F 44.1 °F 77% 29.90 in 10.0 mi SE 8.1 mph - N/A   Clear
2:54 AM 50.0 °F 43.0 °F 77% 29.90 in 10.0 mi South 4.6 mph - N/A   Clear
3:54 AM 48.0 °F 43.0 °F 83% 29.89 in 10.0 mi ESE 9.2 mph - N/A   Clear
4:54 AM 48.0 °F 44.1 °F 86% 29.88 in 10.0 mi Calm Calm - N/A   Clear
5:54 AM 48.0 °F 45.0 °F 89% 29.90 in 10.0 mi Calm Calm - N/A   Clear
6:54 AM 52.0 °F 48.0 °F 86% 29.88 in 10.0 mi Calm Calm - N/A   Clear
7:54 AM 57.0 °F 46.9 °F 69% 29.88 in 10.0 mi Calm Calm - N/A   Clear
8:54 AM 57.9 °F 50.0 °F 75% 29.91 in 10.0 mi WNW 5.8 mph - N/A   Clear
9:54 AM 60.1 °F 52.0 °F 75% 29.93 in 10.0 mi SW 6.9 mph - N/A   Clear
10:54 AM 61.0 °F 53.1 °F 75% 29.88 in 10.0 mi NE 5.8 mph - N/A   Scattered Clouds
11:54 AM 64.9 °F 54.0 °F 68% 29.88 in 10.0 mi Calm Calm - N/A   Clear
12:54 PM 69.1 °F 55.0 °F 61% 29.87 in 10.0 mi North 5.8 mph - N/A   Clear
1:54 PM 72.0 °F 55.9 °F 57% 29.83 in 10.0 mi NE 4.6 mph - N/A   Clear
2:54 PM 75.9 °F 55.9 °F 50% 29.80 in 10.0 mi East 12.7 mph - N/A   Clear
3:54 PM 77.0 °F 57.0 °F 50% 29.78 in 10.0 mi ENE 13.8 mph - N/A   Clear
4:54 PM 75.9 °F 55.9 °F 50% 29.74 in 10.0 mi East 20.7 mph 28.8 mph N/A   Clear
5:54 PM 75.9 °F 57.0 °F 52% 29.71 in 10.0 mi East 19.6 mph 24.2 mph N/A   Clear
6:54 PM 73.0 °F 57.0 °F 57% 29.68 in 10.0 mi ESE 13.8 mph 21.9 mph N/A   Clear
7:54 PM 73.0 °F 59.0 °F 61% 29.64 in 10.0 mi ESE 17.3 mph 24.2 mph N/A   Clear
8:54 PM 73.0 °F 55.9 °F 55% 29.63 in 10.0 mi ESE 21.9 mph 29.9 mph N/A   Clear
9:54 PM 73.0 °F 48.9 °F 42% 29.62 in 10.0 mi ESE 20.7 mph 34.5 mph N/A   Clear
11:54 PM 68.0 °F 48.9 °F 50% 29.56 in 10.0 mi East 15.0 mph - N/A   Clear